QPF
0.01 0.02 0.02 0.01 0.01 0.01 0.00 0.00 0.00 0.01 0.02 0.01 0.02 0.03 0.02 0.01 0.01 0.01 0.01 0.01 0.01 0.01 0.01 0.01 0.01 0.01 0.01 0.00 0.01 0.02 0.02 0.02 0.02 0.02 0.02 0.02 0.02 0.02 0.04 0.03 0.01 0.01 0.02 0.03
0.01 0.01 0.02 0.02 0.01 0.01 0.01 0.01 0.01 0.01 0.02 0.03 0.03 0.03 0.02 0.01 0.01 0.01 0.01 0.02 0.02 0.01 0.01 0.01 0.01 0.01 0.01 0.01 0.02 0.03 0.03 0.02 0.01 0.01 0.01 0.01 0.01 0.02 0.02 0.02 0.02 0.01 0.01 0.01
0.01 0.01 0.02 0.04 0.03 0.02 0.01 0.01 0.01 0.01 0.02 0.02 0.04 0.03 0.02 0.02 0.01 0.01 0.01 0.01 0.01 0.01 0.01 0.01 0.01 0.02 0.02 0.03 0.02 0.02 0.02 0.01 0.01 0.01 0.01 0.01 0.01 0.02 0.02 0.02 0.02 0.02 0.01 0.02
0.02 0.02 0.03 0.02 0.01 0.01 0.01 0.00 0.00 0.01 0.01 0.01 0.01 0.01 0.02 0.02 0.02 0.02 0.01 0.01 0.01 0.00 0.01 0.01 0.01 0.01 0.01 0.02 0.03 0.02 0.02 0.02 0.02 0.02 0.02 0.02 0.02 0.02 0.02 0.02 0.02 0.02 0.02 0.02
0.03 0.03 0.03 0.02 0.01 0.00 0.00 0.01 0.00 0.00 0.00 0.00 0.01 0.01 0.02 0.02 0.04 0.02 0.01 0.01 0.01 0.01 0.01 0.01 0.01 0.01 0.01 0.02 0.02 0.02 0.02 0.03 0.02 0.02 0.02 0.01 0.01 0.01 0.02 0.02 0.03 0.03 0.03 0.03
0.03 0.04 0.02 0.02 0.01 0.01 0.01 0.01 0.01 0.00 0.00 0.01 0.01 0.03 0.04 0.03 0.02 0.01 0.02 0.01 0.01 0.01 0.02 0.01 0.01 0.02 0.02 0.03 0.03 0.03 0.03 0.03 0.02 0.02 0.02 0.02 0.03 0.02 0.03 0.03 0.03 0.02 0.02 0.02
0.04 0.04 0.02 0.01 0.01 0.01 0.02 0.02 0.01 0.01 0.01 0.01 0.02 0.03 0.03 0.01 0.01 0.01 0.01 0.00 0.01 0.01 0.02 0.03 0.03 0.03 0.03 0.04 0.04 0.03 0.03 0.02 0.02 0.02 0.03 0.04 0.05 0.03 0.05 0.05 0.04 0.03 0.03 0.03
0.04 0.05 0.04 0.02 0.03 0.03 0.04 0.01 0.01 0.02 0.01 0.01 0.01 0.01 0.01 0.01 0.01 0.00 0.00 0.00 0.00 0.01 0.02 0.03 0.03 0.04 0.04 0.04 0.03 0.03 0.04 0.04 0.04 0.03 0.03 0.03 0.04 0.05 0.05 0.06 0.04 0.03 0.03 0.02
0.05 0.05 0.04 0.03 0.04 0.04 0.02 0.02 0.03 0.03 0.02 0.01 0.01 0.01 0.02 0.01 0.01 0.00 0.00 0.00 0.01 0.01 0.02 0.02 0.02 0.02 0.03 0.03 0.03 0.03 0.04 0.06 0.07 0.07 0.06 0.06 0.05 0.05 0.05 0.06 0.06 0.04 0.03 0.02
0.04 0.04 0.03 0.02 0.02 0.04 0.05 0.05 0.04 0.03 0.02 0.01 0.01 0.00 0.01 0.01 0.01 0.01 0.00 0.00 0.01 0.01 0.01 0.02 0.02 0.02 0.02 0.02 0.02 0.03 0.03 0.05 0.06 0.07 0.08 0.07 0.07 0.06 0.05 0.06 0.06 0.06 0.05 0.04
0.04 0.04 0.03 0.03 0.03 0.02 0.03 0.03 0.04 0.02 0.01 0.01 0.00 0.01 0.01 0.01 0.01 0.01 0.01 0.01 0.02 0.02 0.02 0.02 0.01 0.02 0.02 0.02 0.02 0.03 0.04 0.04 0.05 0.04 0.05 0.06 0.06 0.05 0.05 0.05 0.05 0.06 0.06 0.06
0.06 0.04 0.04 0.07 0.04 0.02 0.03 0.03 0.04 0.03 0.01 0.01 0.00 0.00 0.00 0.00 0.01 0.01 0.01 0.01 0.02 0.02 0.02 0.02 0.02 0.02 0.02 0.02 0.02 0.03 0.04 0.04 0.04 0.04 0.03 0.03 0.04 0.03 0.04 0.05 0.04 0.04 0.05 0.06
0.06 0.04 0.02 0.02 0.02 0.01 0.01 0.01 0.01 0.01 0.00 0.00 0.00 0.00 0.00 0.01 0.01 0.01 0.01 0.01 0.02 0.02 0.03 0.02 0.02 0.02 0.02 0.02 0.02 0.03 0.04 0.04 0.04 0.04 0.04 0.03 0.03 0.03 0.03 0.04 0.04 0.04 0.03 0.03
0.03 0.03 0.02 0.01 0.01 0.00 0.00 0.00 0.00 0.01 0.00 0.00 0.00 0.00 0.00 0.00 0.00 0.01 0.01 0.01 0.02 0.02 0.03 0.02 0.03 0.03 0.02 0.02 0.03 0.03 0.04 0.04 0.04 0.04 0.04 0.04 0.03 0.03 0.03 0.04 0.03 0.02 0.02 0.03
0.01 0.02 0.02 0.01 0.00 0.00 0.00 0.00 0.00 0.00 0.00 0.00 0.00 0.00 0.01 0.01 0.01 0.01 0.01 0.01 0.02 0.03 0.03 0.02 0.02 0.02 0.02 0.02 0.02 0.04 0.04 0.04 0.03 0.04 0.04 0.03 0.04 0.03 0.03 0.04 0.04 0.04 0.04 0.04
0.01 0.01 0.01 0.00 0.01 0.02 0.02 0.01 0.01 0.01 0.01 0.00 0.00 0.00 0.00 0.01 0.01 0.01 0.01 0.01 0.03 0.03 0.02 0.01 0.01 0.02 0.04 0.04 0.03 0.03 0.02 0.02 0.02 0.02 0.02 0.03 0.03 0.04 0.03 0.03 0.04 0.06 0.07 0.06
0.00 0.00 0.00 0.01 0.01 0.02 0.03 0.02 0.01 0.01 0.00 0.00 0.00 0.00 0.00 0.01 0.02 0.02 0.02 0.03 0.04 0.03 0.02 0.02 0.02 0.03 0.04 0.03 0.03 0.02 0.02 0.02 0.02 0.02 0.02 0.02 0.02 0.02 0.02 0.02 0.03 0.05 0.07 0.08
0.01 0.01 0.01 0.00 0.00 0.01 0.02 0.02 0.02 0.01 0.01 0.01 0.00 0.00 0.01 0.01 0.01 0.02 0.02 0.02 0.03 0.02 0.02 0.02 0.02 0.02 0.03 0.03 0.04 0.03 0.02 0.02 0.02 0.02 0.02 0.02 0.02 0.02 0.02 0.03 0.03 0.04 0.05 0.06
0.01 0.01 0.01 0.01 0.02 0.03 0.03 0.02 0.01 0.02 0.01 0.01 0.01 0.01 0.01 0.02 0.01 0.01 0.01 0.01 0.01 0.01 0.02 0.02 0.02 0.03 0.03 0.02 0.02 0.02 0.02 0.02 0.01 0.02 0.02 0.02 0.02 0.02 0.02 0.03 0.03 0.03 0.03 0.03
0.01 0.01 0.01 0.01 0.04 0.05 0.04 0.02 0.01 0.01 0.01 0.01 0.01 0.01 0.01 0.01 0.01 0.01 0.01 0.01 0.01 0.01 0.01 0.02 0.02 0.03 0.05 0.03 0.02 0.01 0.02 0.02 0.01 0.01 0.02 0.02 0.01 0.01 0.01 0.01 0.02 0.02 0.02 0.03
0.02 0.01 0.01 0.01 0.02 0.02 0.02 0.02 0.01 0.01 0.01 0.01 0.01 0.01 0.02 0.02 0.02 0.02 0.02 0.02 0.02 0.01 0.01 0.01 0.02 0.02 0.04 0.05 0.02 0.01 0.01 0.01 0.01 0.02 0.02 0.02 0.02 0.01 0.01 0.02 0.02 0.02 0.02 0.02
0.03 0.02 0.01 0.01 0.01 0.01 0.01 0.01 0.01 0.01 0.01 0.01 0.01 0.01 0.01 0.01 0.01 0.02 0.02 0.02 0.02 0.01 0.01 0.01 0.01 0.02 0.02 0.03 0.02 0.01 0.00 0.01 0.01 0.01 0.02 0.02 0.02 0.02 0.02 0.02 0.01 0.01 0.01 0.01
0.04 0.03 0.03 0.02 0.01 0.01 0.01 0.01 0.01 0.01 0.01 0.01 0.01 0.01 0.01 0.01 0.01 0.02 0.02 0.02 0.01 0.02 0.01 0.01 0.01 0.01 0.01 0.02 0.01 0.01 0.01 0.01 0.01 0.01 0.01 0.01 0.01 0.01 0.01 0.01 0.01 0.01 0.01 0.01
0.04 0.04 0.04 0.03 0.03 0.02 0.02 0.02 0.02 0.02 0.02 0.01 0.02 0.01 0.01 0.01 0.01 0.01 0.01 0.01 0.01 0.02 0.02 0.02 0.02 0.01 0.02 0.02 0.02 0.01 0.01 0.01 0.01 0.01 0.01 0.01 0.01 0.01 0.01 0.01 0.01 0.01 0.01 0.01
0.03 0.03 0.04 0.05 0.04 0.03 0.02 0.02 0.02 0.02 0.02 0.02 0.02 0.01 0.01 0.01 0.01 0.02 0.01 0.01 0.01 0.02 0.02 0.02 0.02 0.02 0.02 0.01 0.01 0.01 0.01 0.01 0.01 0.01 0.01 0.02 0.02 0.01 0.01 0.01 0.01 0.01 0.02 0.02
0.04 0.03 0.04 0.04 0.04 0.03 0.02 0.02 0.02 0.03 0.03 0.03 0.02 0.02 0.03 0.02 0.01 0.01 0.01 0.01 0.01 0.02 0.03 0.03 0.02 0.02 0.02 0.01 0.01 0.01 0.01 0.01 0.01 0.01 0.01 0.02 0.02 0.02 0.01 0.01 0.01 0.01 0.01 0.01
0.06 0.06 0.05 0.04 0.03 0.03 0.02 0.02 0.02 0.03 0.03 0.03 0.02 0.02 0.02 0.03 0.03 0.03 0.03 0.03 0.02 0.01 0.02 0.04 0.03 0.02 0.02 0.02 0.02 0.01 0.01 0.01 0.01 0.01 0.01 0.01 0.02 0.02 0.03 0.03 0.02 0.01 0.01 0.00
MSLP
1009.57 1009.34 1009.08 1008.86 1008.73 1008.72 1008.84 1009.09 1009.42 1009.79 1010.16 1010.49 1010.74 1010.92 1011.03 1011.09 1011.12 1011.17 1011.24 1011.34 1011.47 1011.61 1011.73 1011.82 1011.83 1011.77 1011.63 1011.41 1011.13 1010.84 1010.57 1010.33 1010.17 1010.10 1010.12 1010.22 1010.38 1010.57 1010.77 1010.96 1011.12 1011.25 1011.35 1011.44
1009.93 1009.69 1009.39 1009.10 1008.87 1008.75 1008.77 1008.91 1009.16 1009.48 1009.84 1010.18 1010.48 1010.71 1010.89 1011.01 1011.09 1011.17 1011.26 1011.36 1011.49 1011.62 1011.75 1011.83 1011.86 1011.82 1011.70 1011.49 1011.24 1010.96 1010.67 1010.43 1010.24 1010.14 1010.13 1010.20 1010.34 1010.52 1010.72 1010.93 1011.12 1011.28 1011.42 1011.56
1010.25 1010.01 1009.70 1009.35 1009.05 1008.84 1008.75 1008.80 1008.97 1009.24 1009.58 1009.93 1010.26 1010.55 1010.79 1010.97 1011.10 1011.21 1011.31 1011.41 1011.52 1011.64 1011.74 1011.81 1011.84 1011.80 1011.70 1011.51 1011.28 1011.00 1010.72 1010.47 1010.27 1010.13 1010.08 1010.12 1010.22 1010.38 1010.58 1010.78 1010.99 1011.18 1011.37 1011.55
1010.49 1010.27 1009.96 1009.59 1009.23 1008.95 1008.79 1008.76 1008.87 1009.10 1009.41 1009.77 1010.14 1010.48 1010.77 1011.00 1011.18 1011.31 1011.41 1011.50 1011.59 1011.67 1011.74 1011.79 1011.79 1011.75 1011.64 1011.48 1011.25 1010.99 1010.72 1010.46 1010.24 1010.08 1009.99 1009.98 1010.04 1010.17 1010.34 1010.54 1010.75 1010.97 1011.19 1011.42
1010.60 1010.41 1010.10 1009.73 1009.36 1009.05 1008.84 1008.77 1008.84 1009.04 1009.34 1009.72 1010.11 1010.50 1010.84 1011.12 1011.33 1011.49 1011.60 1011.67 1011.72 1011.75 1011.77 1011.78 1011.75 1011.69 1011.57 1011.41 1011.20 1010.95 1010.68 1010.42 1010.19 1010.00 1009.87 1009.81 1009.83 1009.91 1010.04 1010.21 1010.42 1010.65 1010.90 1011.17
1010.51 1010.36 1010.09 1009.75 1009.39 1009.09 1008.87 1008.79 1008.84 1009.04 1009.35 1009.75 1010.18 1010.61 1011.00 1011.32 1011.57 1011.75 1011.85 1011.90 1011.91 1011.90 1011.87 1011.82 1011.75 1011.65 1011.53 1011.36 1011.15 1010.91 1010.65 1010.39 1010.14 1009.92 1009.75 1009.64 1009.60 1009.62 1009.70 1009.84 1010.03 1010.25 1010.52 1010.83
1010.21 1010.10 1009.88 1009.60 1009.29 1009.03 1008.85 1008.79 1008.88 1009.09 1009.43 1009.86 1010.33 1010.80 1011.24 1011.61 1011.89 1012.08 1012.18 1012.21 1012.19 1012.12 1012.04 1011.93 1011.82 1011.68 1011.53 1011.36 1011.15 1010.92 1010.67 1010.40 1010.13 1009.88 1009.67 1009.50 1009.38 1009.33 1009.35 1009.43 1009.58 1009.80 1010.07 1010.40
1009.72 1009.65 1009.50 1009.30 1009.08 1008.90 1008.79 1008.79 1008.93 1009.19 1009.57 1010.04 1010.55 1011.07 1011.55 1011.95 1012.26 1012.47 1012.57 1012.59 1012.53 1012.43 1012.29 1012.13 1011.97 1011.80 1011.62 1011.43 1011.22 1010.99 1010.73 1010.46 1010.17 1009.89 1009.62 1009.38 1009.19 1009.06 1009.00 1009.01 1009.10 1009.28 1009.54 1009.88
1009.10 1009.09 1009.02 1008.91 1008.80 1008.72 1008.72 1008.81 1009.01 1009.34 1009.77 1010.28 1010.84 1011.39 1011.90 1012.33 1012.67 1012.89 1013.00 1013.01 1012.93 1012.79 1012.61 1012.41 1012.21 1012.00 1011.79 1011.57 1011.35 1011.11 1010.84 1010.56 1010.24 1009.92 1009.60 1009.29 1009.02 1008.80 1008.65 1008.58 1008.60 1008.73 1008.96 1009.29
1008.44 1008.48 1008.50 1008.51 1008.52 1008.56 1008.67 1008.86 1009.15 1009.54 1010.03 1010.57 1011.16 1011.73 1012.27 1012.72 1013.08 1013.32 1013.44 1013.44 1013.35 1013.19 1012.98 1012.75 1012.50 1012.25 1012.01 1011.77 1011.52 1011.26 1010.98 1010.67 1010.33 1009.97 1009.59 1009.22 1008.86 1008.56 1008.31 1008.16 1008.10 1008.16 1008.35 1008.65
1007.82 1007.93 1008.04 1008.16 1008.29 1008.46 1008.68 1008.97 1009.34 1009.79 1010.32 1010.89 1011.49 1012.08 1012.62 1013.09 1013.46 1013.72 1013.85 1013.86 1013.77 1013.60 1013.37 1013.11 1012.82 1012.54 1012.25 1011.97 1011.69 1011.40 1011.09 1010.76 1010.39 1009.99 1009.57 1009.14 1008.72 1008.34 1008.02 1007.78 1007.65 1007.64 1007.76 1008.01
1007.30 1007.48 1007.68 1007.90 1008.15 1008.43 1008.76 1009.13 1009.57 1010.07 1010.61 1011.20 1011.80 1012.39 1012.93 1013.41 1013.79 1014.06 1014.21 1014.24 1014.16 1013.99 1013.75 1013.45 1013.14 1012.81 1012.48 1012.15 1011.83 1011.50 1011.16 1010.79 1010.40 1009.97 1009.53 1009.06 1008.61 1008.18 1007.80 1007.50 1007.31 1007.23 1007.29 1007.48
1006.89 1007.12 1007.40 1007.71 1008.06 1008.45 1008.86 1009.31 1009.79 1010.32 1010.88 1011.46 1012.05 1012.63 1013.16 1013.64 1014.03 1014.31 1014.48 1014.54 1014.48 1014.31 1014.07 1013.76 1013.41 1013.04 1012.67 1012.29 1011.91 1011.54 1011.16 1010.77 1010.36 1009.93 1009.47 1009.01 1008.54 1008.10 1007.71 1007.38 1007.14 1007.01 1007.01 1007.13
1006.52 1006.81 1007.16 1007.56 1007.99 1008.45 1008.93 1009.44 1009.96 1010.50 1011.06 1011.63 1012.20 1012.76 1013.29 1013.77 1014.17 1014.47 1014.67 1014.75 1014.72 1014.57 1014.33 1014.02 1013.65 1013.24 1012.81 1012.38 1011.96 1011.54 1011.12 1010.71 1010.30 1009.88 1009.45 1009.01 1008.57 1008.16 1007.78 1007.45 1007.21 1007.05 1007.00 1007.05
1006.14 1006.48 1006.89 1007.36 1007.86 1008.39 1008.93 1009.47 1010.02 1010.57 1011.12 1011.69 1012.24 1012.79 1013.32 1013.79 1014.21 1014.54 1014.77 1014.89 1014.89 1014.77 1014.55 1014.23 1013.84 1013.40 1012.93 1012.46 1011.98 1011.53 1011.09 1010.66 1010.26 1009.86 1009.48 1009.09 1008.72 1008.37 1008.04 1007.76 1007.53 1007.36 1007.28 1007.28
1005.69 1006.07 1006.53 1007.06 1007.63 1008.21 1008.80 1009.38 1009.96 1010.52 1011.08 1011.64 1012.19 1012.74 1013.26 1013.75 1014.19 1014.55 1014.82 1014.98 1015.02 1014.94 1014.73 1014.43 1014.03 1013.57 1013.08 1012.56 1012.05 1011.56 1011.10 1010.68 1010.29 1009.93 1009.60 1009.30 1009.01 1008.74 1008.49 1008.27 1008.08 1007.93 1007.83 1007.78
1005.15 1005.57 1006.08 1006.65 1007.27 1007.91 1008.55 1009.17 1009.78 1010.38 1010.96 1011.52 1012.08 1012.64 1013.17 1013.68 1014.14 1014.53 1014.84 1015.05 1015.13 1015.09 1014.92 1014.63 1014.24 1013.78 1013.27 1012.73 1012.20 1011.69 1011.22 1010.80 1010.43 1010.12 1009.84 1009.61 1009.41 1009.23 1009.07 1008.92 1008.79 1008.67 1008.56 1008.48
1004.55 1005.00 1005.54 1006.16 1006.84 1007.53 1008.22 1008.90 1009.55 1010.18 1010.79 1011.39 1011.97 1012.53 1013.09 1013.61 1014.10 1014.53 1014.87 1015.12 1015.24 1015.24 1015.12 1014.86 1014.50 1014.05 1013.54 1013.00 1012.46 1011.94 1011.46 1011.05 1010.70 1010.42 1010.20 1010.03 1009.90 1009.80 1009.72 1009.64 1009.56 1009.47 1009.37 1009.26
1003.97 1004.44 1005.01 1005.67 1006.38 1007.13 1007.87 1008.61 1009.32 1010.00 1010.66 1011.29 1011.90 1012.49 1013.06 1013.60 1014.11 1014.56 1014.93 1015.21 1015.38 1015.42 1015.33 1015.12 1014.80 1014.38 1013.90 1013.37 1012.84 1012.32 1011.85 1011.44 1011.10 1010.84 1010.65 1010.52 1010.44 1010.39 1010.36 1010.33 1010.29 1010.22 1010.13 1010.01
1003.51 1003.98 1004.57 1005.25 1006.00 1006.79 1007.59 1008.38 1009.15 1009.89 1010.59 1011.26 1011.90 1012.51 1013.10 1013.65 1014.16 1014.62 1015.01 1015.32 1015.51 1015.60 1015.56 1015.40 1015.12 1014.75 1014.31 1013.82 1013.31 1012.81 1012.34 1011.94 1011.60 1011.33 1011.15 1011.03 1010.96 1010.93 1010.92 1010.92 1010.90 1010.85 1010.76 1010.63
1003.27 1003.72 1004.30 1004.99 1005.75 1006.57 1007.42 1008.26 1009.08 1009.86 1010.61 1011.31 1011.98 1012.60 1013.19 1013.74 1014.25 1014.71 1015.10 1015.41 1015.63 1015.75 1015.75 1015.64 1015.43 1015.12 1014.73 1014.29 1013.82 1013.35 1012.90 1012.50 1012.16 1011.88 1011.68 1011.54 1011.46 1011.42 1011.40 1011.39 1011.37 1011.32 1011.23 1011.10
1003.28 1003.68 1004.24 1004.91 1005.67 1006.50 1007.36 1008.23 1009.09 1009.90 1010.68 1011.41 1012.09 1012.72 1013.30 1013.84 1014.33 1014.77 1015.15 1015.46 1015.69 1015.83 1015.88 1015.82 1015.67 1015.43 1015.12 1014.74 1014.33 1013.90 1013.48 1013.08 1012.74 1012.44 1012.21 1012.04 1011.92 1011.85 1011.81 1011.77 1011.73 1011.67 1011.57 1011.43
1003.52 1003.88 1004.38 1005.01 1005.74 1006.55 1007.41 1008.28 1009.14 1009.98 1010.77 1011.51 1012.19 1012.81 1013.38 1013.90 1014.36 1014.77 1015.13 1015.43 1015.66 1015.82 1015.91 1015.90 1015.82 1015.66 1015.42 1015.12 1014.77 1014.40 1014.02 1013.65 1013.31 1013.00 1012.75 1012.54 1012.38 1012.27 1012.18 1012.11 1012.05 1011.97 1011.85 1011.71
1003.94 1004.23 1004.66 1005.23 1005.91 1006.67 1007.50 1008.35 1009.20 1010.03 1010.82 1011.56 1012.23 1012.84 1013.39 1013.88 1014.31 1014.69 1015.03 1015.31 1015.54 1015.71 1015.83 1015.88 1015.86 1015.77 1015.62 1015.40 1015.14 1014.83 1014.51 1014.18 1013.85 1013.55 1013.28 1013.05 1012.86 1012.71 1012.59 1012.48 1012.39 1012.28 1012.16 1012.00
1004.45 1004.66 1005.02 1005.51 1006.11 1006.81 1007.59 1008.40 1009.22 1010.03 1010.80 1011.53 1012.19 1012.78 1013.31 1013.77 1014.18 1014.53 1014.84 1015.11 1015.33 1015.52 1015.66 1015.75 1015.79 1015.78 1015.71 1015.58 1015.40 1015.18 1014.92 1014.64 1014.36 1014.08 1013.82 1013.59 1013.38 1013.21 1013.06 1012.93 1012.81 1012.68 1012.54 1012.38
1004.93 1005.08 1005.36 1005.77 1006.30 1006.93 1007.63 1008.39 1009.17 1009.95 1010.70 1011.41 1012.05 1012.63 1013.15 1013.59 1013.98 1014.32 1014.61 1014.86 1015.09 1015.28 1015.44 1015.57 1015.66 1015.71 1015.71 1015.66 1015.57 1015.43 1015.25 1015.05 1014.82 1014.59 1014.36 1014.14 1013.94 1013.77 1013.61 1013.46 1013.33 1013.19 1013.03 1012.85
1005.31 1005.41 1005.63 1005.97 1006.43 1006.99 1007.63 1008.33 1009.07 1009.81 1010.54 1011.23 1011.87 1012.44 1012.95 1013.39 1013.77 1014.09 1014.37 1014.62 1014.84 1015.03 1015.21 1015.36 1015.49 1015.59 1015.66 1015.68 1015.67 1015.61 1015.52 1015.39 1015.23 1015.06 1014.88 1014.70 1014.53 1014.37 1014.22 1014.07 1013.92 1013.77 1013.60 1013.41
Thickness
5740 5746 5748 5746 5748 5755 5751 5747 5736 5737 5735 5740 5745 5743 5741 5740 5736 5732 5727 5724 5722 5719 5717 5714 5711 5708 5706 5704 5702 5700 5697 5694 5691 5690 5689 5687 5686 5686 5685 5684 5685 5684 5683 5684
5727 5739 5742 5740 5742 5748 5750 5749 5745 5746 5740 5749 5747 5744 5737 5733 5729 5724 5720 5718 5716 5714 5710 5708 5705 5703 5701 5699 5697 5695 5692 5689 5688 5686 5684 5682 5681 5680 5679 5679 5679 5679 5678 5678
5713 5730 5731 5724 5739 5742 5741 5745 5742 5734 5737 5743 5736 5732 5728 5726 5722 5718 5715 5713 5710 5706 5703 5701 5699 5697 5694 5693 5692 5689 5686 5685 5683 5681 5679 5677 5677 5675 5674 5673 5673 5673 5673 5673
5708 5710 5694 5723 5748 5746 5739 5739 5742 5738 5736 5734 5731 5728 5725 5722 5716 5712 5710 5706 5703 5700 5697 5694 5692 5691 5690 5689 5686 5683 5681 5680 5679 5677 5675 5672 5671 5670 5669 5668 5668 5668 5668 5668
5698 5695 5701 5722 5733 5733 5726 5722 5732 5729 5726 5726 5725 5718 5712 5712 5709 5705 5702 5699 5696 5694 5691 5688 5685 5684 5683 5681 5679 5677 5676 5675 5674 5673 5670 5668 5666 5665 5663 5662 5662 5663 5663 5663
5692 5684 5685 5709 5727 5733 5724 5706 5721 5721 5716 5715 5712 5697 5693 5700 5700 5697 5694 5691 5689 5687 5684 5680 5679 5677 5675 5673 5672 5670 5670 5670 5669 5667 5665 5663 5662 5660 5659 5657 5657 5658 5658 5658
5683 5680 5692 5710 5721 5721 5692 5692 5710 5712 5709 5704 5697 5693 5692 5693 5690 5688 5685 5683 5681 5678 5675 5672 5672 5670 5667 5665 5664 5666 5666 5664 5663 5661 5660 5658 5656 5655 5653 5652 5651 5651 5652 5653
5680 5673 5677 5702 5705 5693 5688 5701 5703 5701 5699 5694 5691 5690 5687 5683 5681 5679 5676 5674 5672 5669 5666 5665 5665 5662 5660 5658 5658 5659 5658 5656 5654 5653 5653 5652 5649 5648 5647 5645 5645 5645 5645 5646
5678 5675 5688 5694 5691 5692 5695 5692 5692 5691 5689 5686 5683 5680 5676 5674 5672 5670 5668 5666 5664 5662 5659 5659 5658 5656 5653 5653 5652 5651 5649 5647 5647 5646 5645 5644 5642 5640 5640 5639 5638 5639 5639 5640
5676 5680 5684 5686 5688 5688 5689 5686 5685 5684 5682 5680 5674 5672 5669 5667 5664 5662 5660 5658 5657 5655 5653 5651 5651 5650 5648 5648 5646 5644 5641 5639 5639 5638 5636 5636 5636 5635 5634 5633 5632 5633 5634 5635
5666 5671 5674 5678 5679 5681 5681 5680 5678 5677 5675 5673 5669 5665 5662 5659 5656 5654 5652 5651 5650 5648 5646 5645 5645 5644 5643 5642 5640 5637 5635 5634 5632 5631 5630 5629 5629 5628 5628 5627 5626 5625 5627 5628
5654 5662 5661 5664 5671 5675 5672 5670 5669 5667 5665 5665 5662 5658 5655 5652 5649 5647 5645 5644 5643 5642 5640 5640 5640 5638 5637 5636 5634 5632 5630 5629 5627 5626 5626 5625 5623 5622 5622 5621 5620 5619 5619 5620
5656 5660 5660 5662 5665 5666 5664 5663 5662 5660 5658 5656 5655 5652 5649 5646 5644 5642 5640 5638 5637 5636 5635 5635 5635 5633 5633 5632 5630 5627 5625 5623 5623 5622 5622 5621 5621 5620 5618 5616 5614 5613 5613 5613
5656 5655 5651 5654 5655 5657 5657 5656 5656 5654 5652 5650 5648 5646 5643 5640 5638 5636 5634 5633 5632 5631 5630 5630 5629 5627 5628 5626 5624 5622 5621 5619 5618 5618 5618 5618 5618 5618 5617 5614 5612 5611 5609 5608
5649 5649 5647 5649 5650 5650 5650 5649 5647 5645 5643 5642 5641 5638 5635 5632 5630 5629 5629 5629 5627 5624 5623 5623 5622 5621 5621 5620 5618 5616 5615 5615 5614 5614 5614 5614 5614 5613 5612 5611 5609 5608 5608 5605
5644 5644 5643 5641 5641 5641 5641 5639 5637 5637 5636 5634 5632 5631 5630 5628 5626 5625 5624 5622 5619 5618 5617 5617 5615 5615 5615 5614 5612 5611 5610 5608 5608 5609 5609 5608 5608 5608 5607 5605 5604 5603 5602 5602
5635 5633 5633 5633 5634 5634 5634 5632 5631 5631 5629 5628 5626 5625 5623 5622 5619 5618 5618 5617 5614 5613 5612 5611 5609 5610 5610 5608 5606 5606 5606 5605 5602 5603 5604 5603 5603 5602 5601 5600 5598 5597 5596 5596
5633 5632 5631 5630 5629 5628 5627 5626 5626 5625 5623 5623 5621 5619 5617 5614 5612 5612 5612 5611 5609 5607 5606 5605 5604 5604 5604 5603 5601 5600 5600 5601 5600 5599 5599 5598 5597 5597 5597 5595 5594 5592 5591 5591
5629 5628 5627 5626 5625 5624 5621 5620 5620 5618 5617 5616 5614 5612 5610 5608 5607 5607 5606 5605 5602 5600 5599 5600 5597 5598 5598 5597 5594 5595 5595 5596 5596 5595 5594 5591 5591 5592 5591 5590 5589 5588 5587 5586
5622 5622 5621 5620 5619 5618 5615 5614 5614 5613 5612 5611 5608 5606 5603 5602 5601 5601 5599 5597 5597 5596 5596 5594 5592 5592 5592 5592 5588 5590 5591 5591 5591 5591 5590 5589 5587 5586 5585 5585 5584 5583 5583 5582
5612 5613 5613 5612 5611 5610 5609 5607 5606 5605 5605 5604 5602 5599 5598 5596 5595 5595 5593 5591 5591 5591 5590 5587 5586 5587 5586 5584 5583 5586 5587 5587 5587 5586 5585 5584 5583 5582 5581 5579 5578 5578 5578 5577
5603 5604 5603 5603 5601 5600 5600 5600 5599 5599 5599 5598 5597 5595 5593 5591 5591 5590 5589 5587 5587 5583 5583 5583 5582 5581 5579 5577 5580 5581 5582 5582 5582 5581 5580 5579 5578 5576 5575 5574 5573 5573 5572 5571
5594 5594 5594 5594 5593 5593 5593 5593 5593 5593 5593 5593 5592 5590 5588 5587 5587 5585 5583 5583 5582 5577 5578 5578 5576 5573 5572 5573 5575 5576 5577 5576 5576 5575 5575 5574 5573 5571 5570 5569 5567 5567 5566 5565
5585 5585 5586 5587 5587 5586 5585 5586 5587 5587 5587 5587 5587 5586 5585 5583 5583 5583 5581 5577 5575 5572 5573 5571 5568 5567 5565 5569 5571 5571 5571 5571 5570 5570 5570 5569 5568 5566 5564 5563 5561 5560 5559 5558
5579 5579 5580 5580 5579 5580 5580 5581 5581 5581 5582 5582 5582 5582 5581 5580 5578 5578 5577 5575 5570 5567 5568 5566 5563 5562 5564 5566 5567 5567 5566 5566 5565 5564 5563 5562 5562 5561 5559 5557 5555 5554 5553 5552
5573 5573 5575 5575 5575 5576 5577 5577 5577 5578 5578 5577 5578 5578 5577 5576 5574 5573 5572 5570 5568 5564 5564 5563 5562 5559 5560 5562 5562 5561 5561 5560 5559 5558 5557 5556 5555 5554 5553 5551 5549 5548 5546 5544
5570 5570 5570 5571 5573 5573 5574 5574 5573 5573 5573 5573 5572 5573 5572 5572 5570 5568 5567 5566 5565 5563 5562 5561 5561 5559 5559 5558 5557 5556 5555 5554 5553 5552 5551 5550 5548 5547 5546 5544 5543 5541 5539 5537